Satellite-Ground Cal/Val Site Overpasses Predictions

Prediction of Satellite NPP Overpassing Cal/Val Site: Antarctic Dome C

Ground Cal/Val Site Location: Latitude: -75.10, Longitude: 123.35; Satellite-Ground Site NADIR distance within 100 km.

Table of predicted overpasses for the next 14.0 days since TLE Epoch: 6/10/2023
Interval Starting Time Ending Time Minimum Distance Time Minimum Distance (km)
1 06/10/2023 07:20:31 06/10/2023 07:20:50 06/10/2023 07:20:40 74.11
2 06/12/2023 15:02:42 06/12/2023 15:03:07 06/12/2023 15:02:55 53.12
3 06/13/2023 14:43:52 06/13/2023 14:44:17 06/13/2023 14:44:05 56.03
4 06/14/2023 07:45:33 06/14/2023 07:45:53 06/14/2023 07:45:43 71.20
5 06/15/2023 07:26:38 06/15/2023 07:27:05 06/15/2023 07:26:52 36.91
6 06/17/2023 15:09:00 06/17/2023 15:09:12 06/17/2023 15:09:06 90.54
7 06/18/2023 14:50:01 06/18/2023 14:50:30 06/18/2023 14:50:15 20.78
8 06/20/2023 07:32:48 06/20/2023 07:33:17 06/20/2023 07:33:03 1.30
